QPF
0.00 0.00 0.00 0.00 0.00 0.01 0.00 0.01 0.01 0.00 0.00 0.01 0.01 0.01 0.01 0.00 0.00 0.00 0.00 0.00 0.00 0.01 0.01 0.00 0.00 0.00 0.00 0.00 0.01 0.02 0.02 0.02 0.02 0.01 0.01 0.01 0.01 0.01 0.01 0.01 0.00 0.01 0.02 0.02
0.00 0.00 0.00 0.00 0.00 0.00 0.00 0.01 0.01 0.00 0.00 0.01 0.01 0.01 0.01 0.01 0.00 0.00 0.00 0.00 0.00 0.00 0.00 0.00 0.00 0.00 0.00 0.00 0.01 0.02 0.02 0.02 0.01 0.01 0.01 0.01 0.01 0.01 0.01 0.00 0.00 0.01 0.02 0.02
0.00 0.00 0.00 0.00 0.00 0.00 0.00 0.00 0.01 0.00 0.00 0.00 0.01 0.02 0.01 0.02 0.01 0.00 0.00 0.00 0.00 0.00 0.01 0.00 0.00 0.00 0.00 0.00 0.01 0.01 0.01 0.01 0.01 0.01 0.01 0.01 0.01 0.01 0.02 0.01 0.01 0.01 0.00 0.01
0.00 0.00 0.00 0.00 0.00 0.00 0.00 0.00 0.00 0.00 0.01 0.01 0.01 0.03 0.03 0.03 0.02 0.01 0.00 0.00 0.00 0.00 0.01 0.01 0.01 0.00 0.01 0.01 0.01 0.01 0.01 0.01 0.01 0.01 0.01 0.01 0.01 0.01 0.01 0.02 0.01 0.01 0.00 0.01
0.00 0.00 0.00 0.00 0.00 0.00 0.00 0.00 0.00 0.00 0.01 0.02 0.01 0.02 0.02 0.03 0.03 0.01 0.00 0.00 0.00 0.00 0.00 0.00 0.01 0.01 0.01 0.02 0.03 0.01 0.01 0.01 0.00 0.01 0.01 0.01 0.02 0.02 0.03 0.02 0.01 0.01 0.01 0.01
0.00 0.00 0.00 0.00 0.00 0.00 0.00 0.00 0.00 0.00 0.01 0.02 0.01 0.01 0.01 0.02 0.02 0.01 0.01 0.00 0.00 0.00 0.01 0.00 0.01 0.01 0.01 0.01 0.01 0.00 0.00 0.00 0.00 0.00 0.01 0.01 0.02 0.03 0.03 0.03 0.02 0.01 0.01 0.01
0.00 0.00 0.00 0.00 0.00 0.00 0.00 0.01 0.02 0.02 0.02 0.01 0.00 0.00 0.01 0.01 0.01 0.02 0.03 0.02 0.02 0.01 0.00 0.00 0.01 0.01 0.02 0.00 0.00 0.00 0.00 0.00 0.00 0.01 0.00 0.01 0.01 0.02 0.01 0.01 0.01 0.02 0.02 0.01
0.00 0.00 0.00 0.00 0.00 0.00 0.00 0.01 0.02 0.03 0.02 0.01 0.00 0.00 0.00 0.01 0.01 0.02 0.02 0.01 0.01 0.01 0.01 0.01 0.00 0.01 0.02 0.01 0.00 0.00 0.00 0.00 0.01 0.00 0.00 0.00 0.00 0.01 0.01 0.01 0.01 0.01 0.02 0.01
0.00 0.00 0.00 0.00 0.00 0.00 0.00 0.00 0.01 0.01 0.01 0.01 0.01 0.00 0.00 0.01 0.01 0.02 0.01 0.01 0.01 0.01 0.01 0.01 0.01 0.01 0.02 0.02 0.00 0.00 0.00 0.00 0.00 0.00 0.00 0.00 0.00 0.00 0.01 0.01 0.01 0.01 0.01 0.01
0.01 0.01 0.00 0.00 0.00 0.00 0.00 0.00 0.01 0.02 0.03 0.03 0.01 0.01 0.02 0.02 0.01 0.03 0.02 0.01 0.01 0.01 0.01 0.01 0.01 0.01 0.01 0.02 0.01 0.00 0.00 0.00 0.00 0.01 0.01 0.01 0.00 0.01 0.01 0.01 0.01 0.01 0.01 0.01
0.00 0.01 0.00 0.00 0.00 0.00 0.01 0.01 0.01 0.03 0.03 0.04 0.03 0.02 0.02 0.02 0.02 0.03 0.04 0.02 0.01 0.01 0.01 0.01 0.01 0.02 0.02 0.03 0.01 0.00 0.00 0.00 0.00 0.01 0.01 0.00 0.00 0.00 0.00 0.01 0.01 0.01 0.01 0.01
0.00 0.01 0.01 0.00 0.00 0.00 0.01 0.02 0.02 0.03 0.03 0.03 0.04 0.03 0.02 0.02 0.01 0.02 0.02 0.01 0.02 0.01 0.01 0.01 0.01 0.01 0.02 0.03 0.01 0.00 0.00 0.00 0.00 0.01 0.00 0.00 0.00 0.00 0.00 0.00 0.00 0.01 0.01 0.01
0.00 0.01 0.01 0.01 0.01 0.00 0.01 0.01 0.01 0.02 0.02 0.02 0.03 0.03 0.02 0.01 0.02 0.02 0.01 0.01 0.02 0.02 0.01 0.01 0.01 0.01 0.01 0.02 0.02 0.00 0.00 0.00 0.00 0.01 0.01 0.01 0.01 0.01 0.00 0.01 0.00 0.00 0.00 0.00
0.00 0.01 0.01 0.01 0.01 0.01 0.01 0.01 0.01 0.01 0.01 0.02 0.01 0.02 0.01 0.01 0.01 0.02 0.02 0.02 0.02 0.03 0.03 0.02 0.03 0.02 0.01 0.01 0.01 0.01 0.00 0.00 0.00 0.00 0.01 0.01 0.02 0.01 0.01 0.01 0.01 0.01 0.01 0.01
0.00 0.01 0.01 0.00 0.00 0.00 0.00 0.00 0.01 0.01 0.01 0.01 0.01 0.01 0.01 0.01 0.01 0.01 0.02 0.02 0.02 0.02 0.03 0.03 0.03 0.02 0.02 0.01 0.01 0.01 0.01 0.00 0.00 0.01 0.01 0.01 0.01 0.01 0.02 0.02 0.01 0.01 0.01 0.01
0.00 0.01 0.01 0.01 0.00 0.00 0.01 0.00 0.00 0.00 0.00 0.01 0.02 0.01 0.01 0.01 0.01 0.01 0.01 0.01 0.01 0.01 0.02 0.03 0.02 0.02 0.01 0.01 0.02 0.02 0.02 0.02 0.02 0.02 0.02 0.01 0.01 0.02 0.02 0.03 0.02 0.01 0.01 0.01
0.00 0.00 0.01 0.01 0.01 0.01 0.00 0.00 0.00 0.01 0.01 0.01 0.01 0.02 0.01 0.01 0.01 0.02 0.02 0.02 0.02 0.02 0.01 0.02 0.02 0.01 0.01 0.01 0.01 0.02 0.01 0.01 0.02 0.02 0.01 0.01 0.01 0.01 0.02 0.02 0.02 0.02 0.02 0.02
0.01 0.01 0.01 0.01 0.01 0.01 0.00 0.00 0.00 0.01 0.01 0.01 0.01 0.01 0.00 0.01 0.01 0.01 0.01 0.01 0.01 0.02 0.01 0.01 0.03 0.02 0.01 0.01 0.01 0.01 0.01 0.01 0.01 0.02 0.01 0.01 0.01 0.00 0.01 0.02 0.03 0.03 0.03 0.02
0.01 0.01 0.01 0.01 0.01 0.01 0.01 0.01 0.01 0.01 0.01 0.02 0.01 0.01 0.01 0.01 0.01 0.01 0.00 0.00 0.00 0.01 0.01 0.01 0.01 0.03 0.03 0.02 0.02 0.01 0.00 0.01 0.01 0.02 0.02 0.02 0.02 0.01 0.01 0.02 0.02 0.02 0.03 0.03
0.01 0.01 0.02 0.02 0.01 0.01 0.01 0.01 0.01 0.01 0.02 0.02 0.01 0.01 0.01 0.01 0.02 0.02 0.00 0.00 0.00 0.00 0.01 0.00 0.01 0.01 0.03 0.04 0.02 0.01 0.00 0.01 0.01 0.01 0.02 0.03 0.02 0.02 0.03 0.03 0.02 0.02 0.02 0.03
0.00 0.01 0.01 0.02 0.01 0.01 0.01 0.01 0.02 0.03 0.04 0.02 0.02 0.01 0.01 0.01 0.01 0.01 0.01 0.01 0.00 0.00 0.00 0.00 0.01 0.01 0.01 0.06 0.06 0.03 0.01 0.01 0.01 0.01 0.01 0.01 0.03 0.02 0.02 0.03 0.03 0.02 0.03 0.03
0.01 0.01 0.01 0.01 0.02 0.02 0.02 0.01 0.02 0.03 0.02 0.03 0.02 0.02 0.02 0.02 0.01 0.01 0.01 0.01 0.01 0.01 0.01 0.01 0.01 0.01 0.01 0.03 0.06 0.03 0.01 0.01 0.01 0.01 0.01 0.01 0.01 0.01 0.02 0.02 0.03 0.03 0.04 0.05
0.01 0.02 0.02 0.01 0.01 0.01 0.01 0.01 0.01 0.02 0.01 0.01 0.02 0.02 0.02 0.02 0.02 0.01 0.00 0.00 0.00 0.01 0.01 0.01 0.01 0.01 0.01 0.01 0.02 0.02 0.01 0.01 0.01 0.01 0.01 0.01 0.01 0.01 0.01 0.01 0.02 0.03 0.03 0.04
0.01 0.01 0.01 0.01 0.01 0.01 0.01 0.01 0.01 0.01 0.01 0.01 0.01 0.01 0.01 0.01 0.01 0.00 0.00 0.00 0.00 0.01 0.01 0.01 0.01 0.01 0.01 0.01 0.01 0.02 0.03 0.02 0.01 0.01 0.01 0.01 0.01 0.01 0.01 0.01 0.01 0.02 0.02 0.03
0.01 0.00 0.00 0.01 0.01 0.01 0.01 0.01 0.01 0.01 0.00 0.00 0.00 0.00 0.00 0.00 0.00 0.00 0.00 0.00 0.00 0.00 0.01 0.02 0.01 0.01 0.02 0.02 0.02 0.03 0.04 0.03 0.02 0.01 0.01 0.02 0.02 0.01 0.01 0.01 0.02 0.02 0.02 0.02
0.00 0.00 0.00 0.01 0.00 0.01 0.01 0.00 0.00 0.00 0.00 0.00 0.00 0.00 0.00 0.01 0.00 0.00 0.00 0.00 0.00 0.01 0.02 0.01 0.01 0.01 0.02 0.02 0.03 0.03 0.03 0.02 0.01 0.01 0.01 0.02 0.02 0.02 0.02 0.02 0.02 0.02 0.02 0.02
MSLP
1009.07 1009.53 1009.94 1010.25 1010.43 1010.47 1010.40 1010.26 1010.11 1009.99 1009.94 1009.95 1010.03 1010.14 1010.26 1010.38 1010.48 1010.58 1010.69 1010.86 1011.12 1011.47 1011.92 1012.47 1013.05 1013.64 1014.19 1014.66 1015.04 1015.34 1015.56 1015.75 1015.95 1016.18 1016.47 1016.79 1017.14 1017.49 1017.80 1018.06 1018.27 1018.43 1018.58 1018.75
1010.05 1010.47 1010.81 1011.03 1011.10 1011.05 1010.92 1010.76 1010.63 1010.57 1010.59 1010.69 1010.84 1011.00 1011.14 1011.22 1011.24 1011.23 1011.23 1011.28 1011.43 1011.70 1012.10 1012.62 1013.21 1013.82 1014.40 1014.91 1015.33 1015.67 1015.93 1016.17 1016.41 1016.69 1017.01 1017.38 1017.77 1018.14 1018.47 1018.74 1018.94 1019.09 1019.21 1019.35
1011.05 1011.41 1011.66 1011.76 1011.72 1011.57 1011.38 1011.19 1011.08 1011.08 1011.19 1011.38 1011.62 1011.83 1011.97 1012.02 1011.97 1011.85 1011.73 1011.65 1011.67 1011.85 1012.19 1012.67 1013.26 1013.90 1014.52 1015.08 1015.55 1015.94 1016.25 1016.53 1016.82 1017.14 1017.50 1017.90 1018.31 1018.71 1019.06 1019.34 1019.55 1019.69 1019.79 1019.90
1012.05 1012.33 1012.48 1012.47 1012.31 1012.06 1011.80 1011.60 1011.51 1011.57 1011.76 1012.04 1012.34 1012.60 1012.75 1012.76 1012.63 1012.40 1012.14 1011.92 1011.82 1011.89 1012.16 1012.60 1013.19 1013.84 1014.51 1015.13 1015.67 1016.12 1016.50 1016.83 1017.15 1017.49 1017.88 1018.30 1018.73 1019.15 1019.52 1019.82 1020.04 1020.19 1020.29 1020.38
1013.05 1013.26 1013.30 1013.17 1012.90 1012.57 1012.25 1012.03 1011.96 1012.07 1012.33 1012.69 1013.05 1013.33 1013.48 1013.43 1013.22 1012.87 1012.47 1012.11 1011.88 1011.84 1012.02 1012.42 1013.00 1013.67 1014.39 1015.07 1015.69 1016.21 1016.65 1017.03 1017.38 1017.75 1018.15 1018.58 1019.01 1019.44 1019.83 1020.14 1020.39 1020.56 1020.67 1020.76
1014.04 1014.17 1014.11 1013.88 1013.52 1013.11 1012.75 1012.52 1012.48 1012.63 1012.94 1013.35 1013.75 1014.05 1014.17 1014.07 1013.77 1013.30 1012.77 1012.27 1011.91 1011.75 1011.85 1012.19 1012.74 1013.43 1014.18 1014.93 1015.61 1016.20 1016.70 1017.13 1017.52 1017.91 1018.31 1018.73 1019.16 1019.59 1019.98 1020.32 1020.59 1020.78 1020.93 1021.04
1015.01 1015.06 1014.92 1014.61 1014.17 1013.71 1013.32 1013.09 1013.06 1013.25 1013.61 1014.05 1014.48 1014.78 1014.88 1014.73 1014.34 1013.77 1013.12 1012.49 1012.00 1011.72 1011.72 1011.99 1012.50 1013.18 1013.95 1014.73 1015.46 1016.12 1016.67 1017.15 1017.57 1017.97 1018.37 1018.78 1019.20 1019.62 1020.01 1020.36 1020.65 1020.89 1021.07 1021.22
1015.92 1015.91 1015.70 1015.32 1014.84 1014.35 1013.95 1013.73 1013.73 1013.95 1014.34 1014.81 1015.25 1015.55 1015.63 1015.44 1014.99 1014.34 1013.59 1012.86 1012.25 1011.86 1011.74 1011.92 1012.35 1012.98 1013.73 1014.51 1015.27 1015.97 1016.57 1017.08 1017.54 1017.95 1018.36 1018.76 1019.17 1019.57 1019.96 1020.31 1020.62 1020.89 1021.11 1021.30
1016.73 1016.66 1016.40 1015.99 1015.49 1014.99 1014.61 1014.41 1014.44 1014.70 1015.11 1015.60 1016.06 1016.37 1016.44 1016.23 1015.75 1015.06 1014.25 1013.43 1012.72 1012.22 1011.98 1012.04 1012.36 1012.89 1013.57 1014.31 1015.06 1015.76 1016.38 1016.94 1017.42 1017.86 1018.28 1018.69 1019.08 1019.48 1019.85 1020.20 1020.52 1020.81 1021.07 1021.30
1017.41 1017.29 1017.00 1016.58 1016.09 1015.62 1015.27 1015.12 1015.18 1015.47 1015.91 1016.42 1016.89 1017.22 1017.31 1017.11 1016.64 1015.94 1015.11 1014.24 1013.45 1012.84 1012.47 1012.37 1012.54 1012.93 1013.48 1014.13 1014.82 1015.49 1016.12 1016.70 1017.22 1017.70 1018.15 1018.57 1018.98 1019.36 1019.73 1020.07 1020.39 1020.68 1020.96 1021.23
1017.91 1017.76 1017.46 1017.06 1016.61 1016.20 1015.91 1015.81 1015.92 1016.24 1016.70 1017.23 1017.72 1018.06 1018.19 1018.03 1017.60 1016.94 1016.13 1015.24 1014.40 1013.69 1013.18 1012.92 1012.89 1013.09 1013.47 1013.97 1014.55 1015.17 1015.78 1016.37 1016.93 1017.46 1017.95 1018.42 1018.85 1019.25 1019.61 1019.95 1020.25 1020.53 1020.81 1021.09
1018.24 1018.08 1017.80 1017.44 1017.06 1016.73 1016.51 1016.47 1016.63 1016.97 1017.45 1017.99 1018.49 1018.86 1019.03 1018.93 1018.58 1017.99 1017.22 1016.36 1015.49 1014.70 1014.06 1013.61 1013.37 1013.35 1013.51 1013.83 1014.26 1014.78 1015.35 1015.94 1016.54 1017.13 1017.69 1018.21 1018.69 1019.12 1019.50 1019.83 1020.12 1020.38 1020.64 1020.91
1018.42 1018.26 1018.03 1017.74 1017.44 1017.20 1017.07 1017.09 1017.29 1017.65 1018.13 1018.66 1019.16 1019.55 1019.76 1019.74 1019.48 1018.98 1018.30 1017.48 1016.62 1015.77 1015.01 1014.39 1013.94 1013.68 1013.60 1013.70 1013.96 1014.35 1014.85 1015.43 1016.05 1016.69 1017.33 1017.93 1018.48 1018.96 1019.37 1019.71 1020.00 1020.24 1020.48 1020.73
1018.49 1018.36 1018.18 1017.97 1017.78 1017.63 1017.58 1017.66 1017.89 1018.25 1018.71 1019.22 1019.71 1020.10 1020.35 1020.40 1020.23 1019.85 1019.27 1018.54 1017.71 1016.84 1015.99 1015.22 1014.57 1014.07 1013.75 1013.62 1013.67 1013.91 1014.31 1014.84 1015.48 1016.17 1016.88 1017.56 1018.20 1018.75 1019.21 1019.58 1019.88 1020.12 1020.34 1020.56
1018.50 1018.40 1018.29 1018.17 1018.08 1018.03 1018.05 1018.18 1018.42 1018.77 1019.19 1019.65 1020.10 1020.49 1020.77 1020.88 1020.81 1020.54 1020.09 1019.46 1018.70 1017.84 1016.94 1016.06 1015.24 1014.53 1013.97 1013.61 1013.45 1013.51 1013.78 1014.24 1014.85 1015.56 1016.32 1017.09 1017.81 1018.45 1018.98 1019.41 1019.75 1020.01 1020.23 1020.44
1018.49 1018.43 1018.38 1018.35 1018.34 1018.38 1018.47 1018.63 1018.87 1019.18 1019.55 1019.95 1020.35 1020.71 1021.00 1021.17 1021.19 1021.04 1020.72 1020.22 1019.56 1018.76 1017.86 1016.91 1015.96 1015.08 1014.31 1013.73 1013.35 1013.21 1013.32 1013.67 1014.21 1014.90 1015.69 1016.51 1017.30 1018.03 1018.65 1019.17 1019.57 1019.88 1020.14 1020.36
1018.48 1018.46 1018.46 1018.50 1018.57 1018.67 1018.81 1018.99 1019.22 1019.49 1019.79 1020.13 1020.47 1020.79 1021.08 1021.29 1021.39 1021.37 1021.18 1020.83 1020.29 1019.58 1018.73 1017.76 1016.74 1015.73 1014.80 1014.01 1013.43 1013.08 1013.01 1013.20 1013.62 1014.24 1015.00 1015.83 1016.68 1017.48 1018.19 1018.81 1019.31 1019.71 1020.03 1020.30
1018.47 1018.47 1018.51 1018.60 1018.72 1018.87 1019.04 1019.23 1019.44 1019.66 1019.91 1020.18 1020.46 1020.75 1021.03 1021.27 1021.45 1021.54 1021.49 1021.29 1020.90 1020.32 1019.55 1018.62 1017.58 1016.50 1015.45 1014.50 1013.72 1013.17 1012.89 1012.89 1013.15 1013.64 1014.31 1015.10 1015.95 1016.80 1017.60 1018.31 1018.92 1019.43 1019.86 1020.21
1018.45 1018.45 1018.51 1018.62 1018.77 1018.94 1019.13 1019.33 1019.52 1019.71 1019.92 1020.13 1020.36 1020.61 1020.88 1021.15 1021.40 1021.58 1021.67 1021.61 1021.37 1020.94 1020.29 1019.45 1018.46 1017.37 1016.25 1015.18 1014.24 1013.50 1013.01 1012.79 1012.85 1013.16 1013.69 1014.39 1015.19 1016.03 1016.88 1017.67 1018.39 1019.02 1019.57 1020.03
1018.39 1018.38 1018.43 1018.54 1018.70 1018.89 1019.09 1019.28 1019.47 1019.64 1019.81 1019.99 1020.19 1020.41 1020.67 1020.96 1021.25 1021.51 1021.71 1021.78 1021.70 1021.42 1020.92 1020.21 1019.30 1018.26 1017.14 1016.02 1014.97 1014.07 1013.38 1012.95 1012.78 1012.88 1013.22 1013.75 1014.44 1015.24 1016.07 1016.91 1017.71 1018.45 1019.11 1019.69
1018.28 1018.23 1018.26 1018.36 1018.52 1018.71 1018.91 1019.12 1019.30 1019.47 1019.63 1019.78 1019.96 1020.16 1020.41 1020.69 1021.01 1021.32 1021.60 1021.78 1021.83 1021.71 1021.37 1020.81 1020.05 1019.11 1018.05 1016.93 1015.84 1014.84 1013.99 1013.36 1012.97 1012.84 1012.95 1013.29 1013.81 1014.49 1015.26 1016.08 1016.91 1017.72 1018.48 1019.16
1018.11 1018.03 1018.03 1018.10 1018.25 1018.43 1018.64 1018.86 1019.05 1019.23 1019.38 1019.53 1019.69 1019.87 1020.09 1020.36 1020.68 1021.01 1021.33 1021.59 1021.75 1021.76 1021.58 1021.20 1020.61 1019.82 1018.89 1017.85 1016.79 1015.75 1014.81 1014.03 1013.45 1013.08 1012.96 1013.06 1013.37 1013.87 1014.51 1015.25 1016.05 1016.87 1017.67 1018.43
1017.91 1017.79 1017.76 1017.81 1017.93 1018.11 1018.33 1018.55 1018.76 1018.95 1019.11 1019.26 1019.39 1019.55 1019.74 1019.97 1020.25 1020.57 1020.89 1021.19 1021.43 1021.55 1021.53 1021.32 1020.92 1020.34 1019.58 1018.70 1017.73 1016.73 1015.77 1014.90 1014.17 1013.62 1013.26 1013.12 1013.19 1013.46 1013.91 1014.50 1015.19 1015.95 1016.73 1017.51
1017.70 1017.54 1017.48 1017.51 1017.62 1017.80 1018.02 1018.25 1018.48 1018.68 1018.85 1018.98 1019.10 1019.22 1019.36 1019.53 1019.75 1020.02 1020.31 1020.61 1020.89 1021.10 1021.21 1021.17 1020.98 1020.61 1020.07 1019.39 1018.59 1017.71 1016.80 1015.91 1015.10 1014.40 1013.85 1013.48 1013.30 1013.31 1013.52 1013.90 1014.41 1015.04 1015.74 1016.48
1017.48 1017.31 1017.23 1017.25 1017.36 1017.53 1017.75 1018.00 1018.23 1018.44 1018.60 1018.73 1018.82 1018.89 1018.97 1019.07 1019.21 1019.40 1019.64 1019.91 1020.19 1020.45 1020.66 1020.77 1020.77 1020.62 1020.33 1019.88 1019.29 1018.58 1017.79 1016.96 1016.13 1015.35 1014.65 1014.09 1013.67 1013.43 1013.37 1013.50 1013.79 1014.22 1014.78 1015.42
1017.27 1017.10 1017.02 1017.03 1017.14 1017.32 1017.55 1017.79 1018.03 1018.24 1018.40 1018.50 1018.56 1018.59 1018.60 1018.62 1018.68 1018.78 1018.94 1019.15 1019.41 1019.68 1019.96 1020.19 1020.35 1020.40 1020.33 1020.12 1019.76 1019.26 1018.64 1017.92 1017.14 1016.35 1015.57 1014.86 1014.25 1013.78 1013.47 1013.33 1013.37 1013.57 1013.93 1014.41
Thickness
5759 5747 5737 5741 5745 5742 5738 5734 5731 5737 5747 5739 5732 5730 5736 5741 5740 5738 5738 5737 5735 5733 5735 5735 5734 5733 5732 5730 5728 5726 5723 5721 5719 5717 5714 5711 5710 5710 5710 5711 5710 5709 5708 5706
5746 5738 5749 5753 5751 5745 5740 5731 5730 5738 5746 5738 5730 5730 5738 5740 5739 5739 5738 5737 5735 5734 5733 5731 5730 5729 5727 5725 5724 5722 5720 5718 5716 5713 5712 5710 5708 5707 5707 5706 5706 5705 5704 5702
5737 5744 5755 5749 5742 5737 5735 5731 5730 5730 5737 5738 5729 5721 5729 5738 5741 5739 5739 5739 5738 5734 5730 5729 5727 5725 5723 5722 5721 5719 5717 5715 5713 5711 5709 5707 5704 5702 5701 5700 5700 5700 5700 5698
5743 5751 5748 5741 5737 5736 5726 5740 5736 5731 5721 5717 5723 5703 5721 5730 5731 5733 5734 5734 5734 5734 5731 5727 5725 5722 5720 5719 5719 5717 5715 5713 5710 5708 5704 5700 5696 5694 5695 5696 5695 5695 5695 5694
5739 5745 5740 5733 5736 5737 5732 5741 5736 5731 5722 5715 5721 5710 5716 5727 5720 5727 5732 5733 5732 5732 5730 5727 5724 5721 5719 5718 5715 5713 5712 5709 5707 5704 5701 5697 5694 5693 5693 5693 5692 5691 5690 5690
5742 5750 5745 5739 5742 5741 5739 5734 5732 5729 5718 5699 5717 5712 5708 5721 5725 5727 5731 5732 5731 5731 5729 5726 5725 5721 5717 5715 5712 5710 5707 5705 5703 5701 5698 5695 5691 5690 5688 5687 5686 5685 5685 5684
5729 5737 5744 5744 5730 5733 5730 5714 5698 5694 5692 5699 5726 5717 5712 5731 5738 5734 5730 5730 5731 5730 5726 5723 5720 5716 5712 5710 5709 5706 5703 5700 5699 5697 5695 5692 5689 5687 5685 5683 5682 5680 5679 5678
5714 5714 5732 5736 5727 5719 5722 5715 5691 5680 5689 5705 5720 5712 5716 5735 5738 5737 5735 5732 5731 5728 5725 5721 5718 5714 5710 5708 5706 5703 5700 5697 5695 5693 5691 5690 5687 5685 5683 5681 5680 5677 5676 5675
5712 5711 5732 5734 5733 5725 5714 5712 5719 5704 5703 5699 5709 5714 5718 5731 5730 5728 5728 5727 5724 5724 5722 5719 5716 5713 5709 5705 5703 5701 5698 5694 5692 5690 5687 5686 5684 5682 5680 5679 5677 5675 5674 5673
5718 5705 5720 5728 5728 5725 5722 5717 5710 5697 5683 5680 5698 5704 5703 5711 5716 5719 5719 5718 5720 5721 5720 5717 5714 5710 5707 5705 5701 5699 5696 5692 5689 5686 5684 5682 5680 5678 5677 5674 5672 5671 5670 5669
5717 5703 5707 5714 5709 5708 5711 5708 5705 5699 5697 5680 5677 5690 5717 5713 5716 5715 5715 5715 5715 5716 5716 5714 5712 5709 5706 5702 5699 5695 5692 5689 5686 5683 5680 5678 5676 5674 5672 5670 5668 5667 5666 5665
5713 5703 5696 5706 5720 5722 5713 5708 5702 5684 5684 5691 5680 5685 5718 5715 5715 5713 5711 5712 5714 5713 5713 5711 5709 5705 5701 5698 5695 5692 5689 5686 5682 5680 5677 5674 5672 5670 5667 5665 5664 5663 5661 5660
5702 5694 5683 5686 5697 5706 5703 5705 5703 5697 5690 5684 5677 5682 5711 5710 5708 5707 5704 5706 5707 5708 5707 5706 5703 5700 5698 5695 5692 5689 5686 5683 5680 5676 5672 5669 5666 5664 5662 5660 5659 5658 5657 5655
5698 5690 5683 5674 5684 5695 5694 5698 5699 5691 5678 5678 5685 5685 5695 5699 5698 5699 5698 5699 5699 5699 5700 5698 5696 5695 5693 5691 5688 5685 5682 5680 5676 5672 5667 5664 5661 5659 5657 5656 5654 5652 5651 5649
5693 5683 5689 5692 5697 5696 5693 5692 5693 5688 5687 5680 5684 5685 5689 5694 5693 5693 5692 5692 5692 5690 5691 5690 5689 5688 5687 5685 5684 5681 5678 5676 5672 5667 5663 5660 5658 5655 5653 5651 5649 5647 5645 5644
5688 5680 5682 5682 5690 5690 5684 5686 5686 5685 5686 5683 5683 5682 5693 5695 5692 5688 5686 5685 5683 5683 5684 5684 5683 5681 5680 5680 5678 5676 5674 5671 5667 5662 5658 5655 5652 5650 5647 5645 5643 5641 5639 5638
5680 5674 5668 5668 5681 5679 5669 5681 5681 5680 5684 5681 5673 5678 5686 5683 5681 5679 5679 5678 5676 5676 5677 5676 5675 5674 5674 5675 5674 5670 5668 5666 5662 5657 5653 5650 5647 5644 5642 5640 5637 5634 5633 5632
5674 5669 5664 5662 5664 5649 5670 5688 5686 5679 5679 5680 5677 5678 5679 5676 5676 5676 5676 5673 5670 5670 5669 5668 5668 5668 5668 5669 5668 5666 5663 5659 5655 5651 5647 5644 5641 5638 5636 5633 5630 5628 5627 5625
5674 5664 5656 5653 5649 5657 5668 5675 5676 5670 5666 5674 5672 5672 5672 5673 5670 5667 5670 5670 5666 5665 5663 5663 5663 5663 5662 5661 5661 5659 5655 5652 5648 5644 5641 5638 5635 5632 5629 5626 5624 5623 5621 5619
5666 5663 5652 5647 5640 5642 5656 5670 5676 5668 5654 5667 5667 5665 5664 5662 5650 5652 5661 5662 5660 5659 5658 5657 5657 5657 5655 5654 5653 5650 5647 5644 5641 5639 5636 5633 5630 5626 5624 5622 5619 5617 5615 5613
5645 5645 5641 5637 5636 5646 5655 5664 5665 5644 5643 5657 5659 5658 5656 5652 5648 5651 5654 5653 5653 5652 5651 5650 5649 5647 5646 5647 5645 5641 5640 5637 5636 5634 5631 5628 5625 5622 5619 5616 5614 5611 5609 5606
5642 5637 5636 5635 5629 5633 5651 5652 5644 5642 5652 5652 5651 5651 5648 5647 5647 5646 5644 5644 5644 5643 5643 5642 5639 5638 5638 5639 5635 5633 5632 5632 5630 5627 5624 5622 5619 5616 5614 5609 5607 5604 5601 5599
5641 5640 5636 5634 5631 5641 5646 5643 5644 5645 5643 5643 5642 5643 5641 5638 5637 5636 5636 5636 5635 5635 5634 5633 5631 5630 5630 5630 5628 5625 5626 5625 5623 5620 5617 5615 5613 5610 5607 5603 5600 5597 5595 5592
5637 5641 5634 5631 5634 5637 5638 5637 5637 5636 5634 5635 5635 5634 5633 5630 5629 5628 5627 5627 5627 5627 5626 5625 5624 5622 5621 5621 5621 5619 5619 5617 5615 5612 5610 5608 5605 5602 5600 5597 5594 5591 5588 5585
5623 5627 5624 5622 5625 5626 5627 5628 5628 5628 5628 5627 5627 5626 5624 5622 5620 5619 5619 5618 5618 5618 5617 5617 5615 5614 5613 5613 5613 5612 5611 5609 5606 5604 5602 5600 5598 5595 5592 5589 5587 5585 5583 5581
5615 5613 5609 5609 5615 5614 5614 5619 5620 5618 5618 5618 5618 5617 5616 5615 5613 5612 5611 5610 5609 5609 5609 5608 5607 5606 5606 5605 5604 5604 5603 5601 5598 5595 5593 5591 5589 5587 5584 5581 5578 5577 5576 5575